Weather reports worldwide

Advertisment
Shap, United Kingdom (3225): temperature & dewpoint: 03.07.2020 02:00:00 - 09.07.2020 02:00:00 (BST)Shap, United Kingdom (3225): temperature -20cm & temperature -100cm: 03.07.2020 02:00:00 - 09.07.2020 02:00:00 (BST)Shap, United Kingdom (3225): wind speed & gusts: 03.07.2020 02:00:00 - 09.07.2020 02:00:00 (BST)Shap, United Kingdom (3225): wind direction: 03.07.2020 02:00:00 - 09.07.2020 02:00:00 (BST)Shap, United Kingdom (3225): reduced air pressure: 03.07.2020 02:00:00 - 09.07.2020 02:00:00 (BST)Shap, United Kingdom (3225): visibility: 03.07.2020 02:00:00 - 09.07.2020 02:00:00 (BST)Shap, United Kingdom (3225): sunshine duration: 03.07.2020 02:00:00 - 09.07.2020 02:00:00 (BST)Shap, United Kingdom (3225): precipitation: 03.07.2020 02:00:00 - 09.07.2020 02:00:00 (BST)
Date & Time tt [°C] td [°C] tt -20cm [°C] tt -100cm [°C] ff [km/h] ff [kn] fx [km/h] fx [kn] dd ppp [hPa] vv [km] sd [min] rr [mm]
09.07.2020 02:00:00 - - - - - - - - - - - - -
09.07.2020 01:00:00 9,6 9,1 - - 4 2 - - ESE 1013,0 13 - 1,2
09.07.2020 00:00:00 10,1 9,3 - - 9 5 - - SE 1013,6 7 0 1,0
08.07.2020 23:00:00 10,2 9,5 - - 5 3 - - SSE 1013,7 7 0 0,4
08.07.2020 22:00:00 10,4 9,7 - - 5 3 - - SSE 1013,9 10 0 1,4
08.07.2020 21:00:00 11,1 9,7 - - 13 7 - - SE 1014,1 9 0 0,2
08.07.2020 20:00:00 11,6 10,8 - - 5 3 - - E 1014,2 15 0 0,2
08.07.2020 19:00:00 12,0 10,8 - - 5 3 - - SE 1014,7 14 0 0,8
08.07.2020 18:00:00 12,2 10,7 - - 9 5 - - SE 1015,1 7 0 0,4
08.07.2020 17:00:00 13,2 9,2 - - 18 10 - - SE 1015,4 25 0 0,0
08.07.2020 16:00:00 13,7 9,3 - - 18 10 - - ESE 1015,2 29 0 0,0
08.07.2020 15:00:00 14,6 9,9 - - 21 11 - - ESE 1015,0 27 0 0,0
08.07.2020 14:00:00 14,4 9,2 - - 16 9 - - ESE 1015,3 28 0 0,0
08.07.2020 13:00:00 15,0 9,1 - - 18 10 - - E 1015,3 29 0 0,0
08.07.2020 12:00:00 14,5 9,6 - - 16 9 - - E 1015,3 27 12 0,0
08.07.2020 11:00:00 14,5 8,9 - - 21 11 - - E 1015,5 28 36 0,0
08.07.2020 10:00:00 13,6 9,8 14,7 13,0 16 9 - - E 1015,3 25 30 0,0
08.07.2020 09:00:00 12,1 9,6 - - 9 5 - - ENE 1015,3 23 18 0,0
08.07.2020 08:00:00 12,7 10,0 - - 5 3 - - E 1014,9 24 60 0,0
08.07.2020 07:00:00 10,7 10,3 - - 0 0 - - N 1014,8 17 54 0,0
08.07.2020 06:00:00 5,9 5,7 - - 0 0 - - N 1014,9 6 12 0,0
08.07.2020 05:00:00 5,8 5,2 - - 0 0 - - N 1014,8 3,9 0 0,0
08.07.2020 04:00:00 7,9 7,2 - - 2 1 - - NNE 1014,4 14 0 0,0
08.07.2020 03:00:00 9,1 8,7 - - 0 0 - - N 1014,4 14 0 0,0
08.07.2020 02:00:00 9,3 8,7 - - 2 1 - - NE 1014,6 26 0 0,0
08.07.2020 01:00:00 9,4 8,7 - - 0 0 - - N 1014,9 19 - 0,0
08.07.2020 00:00:00 9,5 8,7 - - 4 2 - - SSW 1015,0 19 0 0,0
07.07.2020 23:00:00 9,9 9,0 - - 4 2 - - S 1015,0 19 0 0,0
07.07.2020 22:00:00 10,5 9,1 - - 2 1 - - S 1014,9 22 0 0,0
07.07.2020 21:00:00 11,0 9,0 - - 9 5 - - S 1014,9 24 0 0,0
07.07.2020 20:00:00 12,4 8,3 - - 0 0 - - N 1014,9 29 0 0,0
07.07.2020 19:00:00 12,8 8,3 - - 5 3 - - SW 1015,3 27 18 0,0
07.07.2020 18:00:00 12,4 8,6 - - 11 6 - - SSW 1015,7 28 18 0,0
07.07.2020 17:00:00 12,9 8,9 - - 13 7 - - SW 1016,3 30 12 0,0
07.07.2020 16:00:00 11,5 8,5 - - 15 8 - - SW 1016,9 27 0 0,0
07.07.2020 15:00:00 11,0 8,0 - - 11 6 - - WSW 1017,1 27 0 0,0
07.07.2020 14:00:00 11,4 8,4 - - 9 5 - - WSW 1017,3 26 0 0,0
07.07.2020 13:00:00 11,5 8,2 - - 16 9 - - WSW 1017,5 28 0 0,0
07.07.2020 12:00:00 11,5 8,3 - - 13 7 - - SW 1017,6 27 0 0,0
07.07.2020 11:00:00 11,0 8,6 - - 15 8 - - WSW 1018,0 26 0 0,0
07.07.2020 10:00:00 10,3 8,6 14,9 13,0 13 7 - - SW 1018,3 14 0 0,2
07.07.2020 09:00:00 11,1 8,0 - - 13 7 - - SW 1018,5 23 0 0,0
07.07.2020 08:00:00 11,1 8,3 - - 15 8 - - SW 1018,5 24 0 0,0
07.07.2020 07:00:00 10,6 8,2 - - 9 5 - - WSW 1018,7 22 0 0,0
07.07.2020 06:00:00 10,3 8,0 - - 11 6 - - WSW 1019,1 23 0 0,0
07.07.2020 05:00:00 9,1 7,8 - - 0 0 - - N 1019,5 22 0 0,0
07.07.2020 04:00:00 9,3 7,5 - - 4 2 - - W 1020,0 21 0 0,0
07.07.2020 03:00:00 9,4 6,7 - - 8 4 - - WSW 1020,4 23 0 0,0
07.07.2020 02:00:00 10,2 6,3 - - 8 4 - - W 1020,6 26 0 0,0
07.07.2020 01:00:00 10,5 6,2 - - 13 7 - - W 1020,7 27 - 0,0
07.07.2020 00:00:00 10,3 5,4 - - 15 8 - - W 1021,1 28 0 0,0
06.07.2020 23:00:00 10,5 5,6 - - 13 7 - - W 1021,3 25 0 0,0
06.07.2020 22:00:00 10,7 5,5 - - 8 4 - - W 1021,3 27 0 0,0
06.07.2020 21:00:00 11,8 5,1 - - 11 6 - - W 1020,8 29 6 0,0
06.07.2020 20:00:00 13,1 7,1 - - 13 7 - - WNW 1020,5 28 36 0,0
06.07.2020 19:00:00 14,4 7,0 - - 13 7 - - WNW 1020,4 27 54 0,0
06.07.2020 18:00:00 15,0 7,3 - - 18 10 - - WNW 1020,2 26 30 0,0
06.07.2020 17:00:00 15,5 8,7 - - 15 8 - - W 1020,0 24 54 0,0
06.07.2020 16:00:00 15,4 7,9 - - 21 11 - - WNW 1019,5 25 54 0,0
06.07.2020 15:00:00 15,2 8,1 - - 18 10 - - WNW 1019,1 25 24 0,0
06.07.2020 14:00:00 14,3 8,0 - - 21 11 - - NW 1018,7 27 18 0,0
06.07.2020 13:00:00 14,0 8,4 - - 16 9 - - WNW 1018,0 30 6 0,0
06.07.2020 12:00:00 13,0 8,6 - - 15 8 - - WNW 1017,4 35 0 0,0
06.07.2020 11:00:00 11,9 9,1 - - 9 5 - - NW 1016,6 24 6 0,0
06.07.2020 10:00:00 13,8 8,9 14,7 13,2 24 13 - - NNW 1015,1 30 60 0,0
06.07.2020 09:00:00 12,8 8,7 - - 22 12 - - NW 1014,2 29 42 0,0
06.07.2020 08:00:00 11,4 8,4 - - 21 11 - - NW 1012,9 26 6 0,0
06.07.2020 07:00:00 10,8 8,5 - - 18 10 - - WNW 1011,6 9 0 0,0
06.07.2020 06:00:00 10,2 8,4 - - 11 6 - - WNW 1010,9 14 0 0,2
06.07.2020 05:00:00 10,0 8,0 - - 13 7 - - W 1010,4 27 0 0,2
06.07.2020 04:00:00 10,5 6,3 - - 15 8 - - W 1009,6 30 0 0,0
06.07.2020 03:00:00 10,0 6,4 - - 13 7 - - W 1009,6 30 0 0,0
06.07.2020 02:00:00 9,9 6,1 - - 15 8 46 25 WNW 1009,3 35 0 0,0
06.07.2020 01:00:00 10,2 7,1 - - 15 8 - - WNW 1008,5 35 - 0,0
06.07.2020 00:00:00 10,0 7,0 - - 16 9 50 27 NW 1007,9 30 0 0,0
05.07.2020 23:00:00 10,1 7,9 - - 16 9 - - WNW 1006,9 15 0 0,0
05.07.2020 22:00:00 9,9 7,6 - - 13 7 48 26 W 1006,0 30 0 0,2
05.07.2020 21:00:00 10,7 7,6 - - 15 8 46 25 WNW 1004,6 30 0 0,6
05.07.2020 20:00:00 10,0 7,2 - - 22 12 65 35 W 1003,4 35 0 3,4
05.07.2020 19:00:00 10,6 8,5 - - 28 15 68 37 WSW 1003,0 12 6 3,6
05.07.2020 18:00:00 11,0 8,6 - - 37 20 61 33 SW 1003,4 9 6 1,2
05.07.2020 17:00:00 11,7 8,2 - - 31 17 59 32 WSW 1003,9 27 12 0,2
05.07.2020 16:00:00 12,3 9,2 - - 29 16 63 34 WSW 1003,9 27 6 0,2
05.07.2020 15:00:00 12,3 8,8 - - 39 21 65 35 SW 1004,1 23 12 0,0
05.07.2020 14:00:00 12,3 10,0 - - 28 15 59 32 WSW 1004,0 22 6 0,4
05.07.2020 13:00:00 11,8 9,0 - - 24 13 52 28 WSW 1004,3 9 6 0,4
05.07.2020 12:00:00 11,6 8,6 - - 26 14 46 25 WSW 1004,3 29 0 0,0
05.07.2020 11:00:00 11,8 7,2 - - 18 10 - - WSW 1004,1 30 0 0,0
05.07.2020 10:00:00 12,0 7,3 15,2 13,2 15 8 - - W 1003,7 35 0 0,0
05.07.2020 09:00:00 11,9 7,5 - - 16 9 - - W 1003,0 40 0 0,0
05.07.2020 08:00:00 11,7 7,0 - - 26 14 57 31 W 1001,8 40 0 0,0
05.07.2020 07:00:00 11,8 8,9 - - 21 11 50 27 W 1000,6 24 0 0,0
05.07.2020 06:00:00 12,9 8,4 - - 34 18 52 28 W 999,2 40 0 0,0
05.07.2020 05:00:00 13,2 10,5 - - 28 15 57 31 W 998,0 17 0 0,4
05.07.2020 04:00:00 14,2 12,7 - - 34 18 74 40 WSW 997,0 11 0 0,8
05.07.2020 03:00:00 14,2 13,4 - - 44 24 76 41 WSW 996,5 3,2 0 1,8
05.07.2020 02:00:00 14,0 13,6 - - 44 24 70 38 SW 996,8 1,5 0 2,0
05.07.2020 01:00:00 13,8 13,6 - - 39 21 61 33 SW 997,6 0,9 - 2,8
05.07.2020 00:00:00 14,1 13,3 - - 48 26 67 36 SW 998,2 1,0 0 3,6
04.07.2020 23:00:00 14,3 13,7 - - 48 26 67 36 SSW 998,7 1,1 0 3,6
04.07.2020 22:00:00 14,4 13,7 - - 39 21 59 32 SSW 999,8 2,0 0 1,0
04.07.2020 21:00:00 14,1 13,6 - - 22 12 - - SSW 1001,7 1,7 0 0,8
04.07.2020 20:00:00 14,2 13,5 - - 26 14 - - SW 1002,6 3,5 0 0,0
04.07.2020 19:00:00 14,9 14,0 - - 18 10 - - SW 1003,3 5 0 0,0
04.07.2020 18:00:00 14,8 13,6 - - 21 11 - - SW 1003,8 7 0 0,0
04.07.2020 17:00:00 15,8 13,7 - - 18 10 - - SW 1004,4 30 0 0,0
04.07.2020 16:00:00 15,6 13,7 - - 18 10 - - SW 1004,8 29 6 0,0
04.07.2020 15:00:00 15,0 13,8 - - 24 13 - - SW 1004,8 9 0 0,0
04.07.2020 14:00:00 15,2 13,4 - - 24 13 - - SW 1004,6 26 0 0,0
04.07.2020 13:00:00 16,0 14,2 - - 21 11 - - WSW 1004,5 22 0 0,0
04.07.2020 12:00:00 15,4 13,7 - - 21 11 - - SW 1004,4 40 0 0,0
04.07.2020 11:00:00 15,9 14,0 - - 18 10 - - SW 1003,9 30 6 0,0
04.07.2020 10:00:00 15,7 14,5 15,0 13,0 16 9 - - WSW 1004,0 40 0 0,0
04.07.2020 09:00:00 14,2 13,7 - - 18 10 - - SW 1004,1 40 0 0,0
04.07.2020 08:00:00 14,4 13,3 - - 13 7 - - SW 1003,7 40 0 0,0
04.07.2020 07:00:00 13,5 13,2 - - 13 7 - - SW 1003,8 13 0 0,0
04.07.2020 06:00:00 13,4 12,9 - - 13 7 - - SW 1003,6 40 0 0,0
04.07.2020 05:00:00 13,3 12,7 - - 9 5 - - SW 1003,5 22 0 0,6
04.07.2020 04:00:00 13,4 12,8 - - 13 7 - - SW 1003,4 2,4 0 0,4
04.07.2020 03:00:00 13,6 13,0 - - 16 9 - - SW 1003,6 18 0 0,2
04.07.2020 02:00:00 13,7 13,2 - - 5 3 - - SSW 1003,9 7 0 0,4
04.07.2020 01:00:00 13,8 13,1 - - 9 5 - - SW 1004,4 10 - 0,0
04.07.2020 00:00:00 13,7 13,1 - - 15 8 - - SW 1004,6 5 0 0,4
03.07.2020 23:00:00 13,7 13,0 - - 22 12 - - SW 1004,8 6 0 0,2
03.07.2020 22:00:00 13,8 13,0 - - 26 14 - - SW 1004,9 6 0 0,2
03.07.2020 21:00:00 13,7 13,1 - - 29 16 48 26 SW 1004,6 4,6 0 0,0
03.07.2020 20:00:00 13,7 12,9 - - 31 17 48 26 SW 1004,9 3,8 0 0,4
03.07.2020 19:00:00 13,7 12,9 - - 31 17 54 29 SW 1005,2 3,5 0 0,4
03.07.2020 18:00:00 13,7 12,9 - - 34 18 59 32 SW 1005,0 3,7 0 1,0
03.07.2020 17:00:00 13,7 12,8 - - 37 20 61 33 SW 1005,5 2,0 0 0,6
03.07.2020 16:00:00 13,9 13,0 - - 42 23 70 38 SW 1005,6 1,8 0 0,6
03.07.2020 15:00:00 14,5 13,6 - - 44 24 72 39 SW 1005,3 3,9 30 0,4
03.07.2020 14:00:00 14,2 13,1 - - 48 26 70 38 SW 1005,6 4,3 6 0,2
03.07.2020 13:00:00 13,5 12,7 - - 48 26 72 39 SW 1006,1 2,7 6 0,4
03.07.2020 12:00:00 14,1 13,3 - - 42 23 67 36 SW 1006,7 4,7 24 0,2
03.07.2020 11:00:00 13,5 12,6 - - 41 22 63 34 SW 1006,7 2,8 0 0,4
03.07.2020 10:00:00 12,6 11,6 15,0 13,0 41 22 57 31 SW 1007,2 3,2 0 0,6
03.07.2020 09:00:00 11,7 10,9 - - 39 21 57 31 SW 1007,9 3,4 0 0,4
03.07.2020 08:00:00 10,9 10,0 - - 35 19 57 31 SW 1008,2 2,8 0 0,6
03.07.2020 07:00:00 10,9 10,0 - - 34 18 52 28 SSW 1008,7 3,7 0 0,4
03.07.2020 06:00:00 10,4 9,3 - - 31 17 46 25 SW 1009,4 3,7 0 0,2
03.07.2020 05:00:00 10,7 9,3 - - 21 11 - - SW 1010,2 16 0 0,2
03.07.2020 04:00:00 10,9 9,5 - - 16 9 - - SW 1010,6 11 0 0,4
03.07.2020 03:00:00 11,2 9,4 - - 22 12 - - SW 1011,4 18 0 0,0
03.07.2020 02:00:00 11,2 9,7 - - 11 6 - - SSW 1011,9 26 0 0,0

tt = temperature
td = dewpoint
tt -20cm = temperature -20cm
tt -100cm = temperature -100cm
ff = wind speed
fx = gusts
dd = wind direction
ppp = reduced air pressure
vv = visibility
sd = sunshine duration
rr = precipitation

Next stations